Location: Brodeslavy
(49.9527°N, 13.5567°E)
Time: 16:24:59
(UTC+00:00)

Cosmos 2251 Rocket - Pass Details

Date: 17 June 2025
Orbit: 761 x 788 km, 74.0° (Epoch: 19 July)

Event Time Altitude Azimuth Distance (km) Brightness Sun altitude
Exits shadow 21:14:24 18° 153° (SSE) 1,860 4.8 -12.5°
Maximum altitude 21:17:36 32° 101° (ESE) 1,315 4.4 -12.7°
Drops below altitude 10° 21:22:19 10° 40° (NE) 2,359 6.4 -13.1°
Sets 21:24:55 0° 31° (NNE) 3,294 7.3 -13.2°
